New Castle, PA

5:10 PM EST on February 14, 2016 (GMT -0500)
New Castle Municipal

Weather History for KUCP - September, 2013

Change the Weather History Date:

Saturday, September 21, 2013

  Actual Average Record
Temperature  
Mean Temperature 60 °F -  
Max Temperature 69 °F 74 °F 92 °F (1932)
Min Temperature 51 °F 51 °F 32 °F (1956)
Degree Days  
Heating Degree Days 5    
Growing Degree Days 10 (Base 50)    
Moisture  
Dew Point 60 °F    
Average Humidity 96    
Maximum Humidity 100    
Minimum Humidity 88    
Precipitation  
Precipitation 0.46 in - - ()
Sea Level Pressure  
Sea Level Pressure 29.76 in    
Wind  
Wind Speed 4 mph (SSW)    
Max Wind Speed 16 mph    
Max Gust Speed 30 mph    
Visibility 4 miles    
Events Rain    
Averages and records for this station are not official NWS values.
T = Trace of Precipitation, MM = Missing Value Source: NWS Daily Summary

Daily Weather History Graph

Daily Weather History Graph

Search for Another Location

Airport or City:

Trip Planner

Search our weather history database for the weather conditions in past years. The results will help you decide how hot, cold, wet, or windy it might be!

Date:

Astronomy

Sep. 21, 2013 Rise Set
Actual Time 7:08 AM EDT 7:20 PM EDT
Civil Twilight 6:40 AM EDT 7:47 PM EDT
Nautical Twilight 6:08 AM EDT 8:19 PM EDT
Astronomical Twilight 5:35 AM EDT 8:52 PM EDT
Moon 8:28 PM EDT (9/21) 9:26 AM EDT (9/21)
Length of Visible Light 13h 06m
Length of Day
12h 11m
Waning Gibbous, 94% of the Moon is Illuminated
Sep 21
Waning Gibbous
Sep 26
Last Quarter
Oct 4
New
Oct 11
First Quarter
Oct 18
Full

Hourly Weather History & Observations

Time (EDT) Temp. Dew Point Humidity Pressure Visibility Wind Dir Wind Speed Gust Speed Precip Events Conditions
12:56 AM 68.9 °F 66.9 °F 93% 29.85 in 7.0 mi Variable 4.6 mph - N/A   Mostly Cloudy
1:56 AM 69.8 °F 66.2 °F 88% 29.81 in 8.0 mi Calm Calm - N/A   Scattered Clouds
2:56 AM 68.9 °F 66.9 °F 93% 29.82 in 9.0 mi Calm Calm - N/A   Mostly Cloudy
3:56 AM 68.9 °F 66.9 °F 93% 29.80 in 9.0 mi Variable 3.5 mph - N/A   Scattered Clouds
4:56 AM 68.0 °F 66.2 °F 94% 29.75 in 7.0 mi Variable 5.8 mph - N/A   Mostly Cloudy
5:56 AM 68.0 °F 65.8 °F 93% 29.75 in 8.0 mi Variable 4.6 mph - N/A   Scattered Clouds
6:42 AM 68.0 °F 66.2 °F 94% 29.72 in 8.0 mi Variable 3.5 mph - N/A   Mostly Cloudy
6:56 AM 68.0 °F 65.8 °F 93% 29.74 in 10.0 mi Variable 5.8 mph - N/A   Overcast
7:35 AM 68.0 °F 66.2 °F 94% 29.72 in 2.5 mi Variable 6.9 mph - 0.03 in Rain Light Rain
7:47 AM 68.0 °F 66.2 °F 94% 29.72 in 7.0 mi Variable 4.6 mph - 0.03 in   Overcast
7:56 AM 68.0 °F 66.2 °F 94% 29.72 in 4.0 mi Calm Calm - N/A Rain Light Rain
8:18 AM 68.0 °F 66.2 °F 94% 29.71 in 6.0 mi South 4.6 mph - 0.00 in   Overcast
8:25 AM 66.2 °F 66.2 °F 100% 29.70 in 3.0 mi South 3.5 mph - 0.00 in Rain Light Rain
8:42 AM 66.2 °F 66.2 °F 100% 29.71 in 4.0 mi SSW 8.1 mph - 0.01 in Rain Light Rain
8:56 AM 66.9 °F 65.8 °F 96% 29.74 in 2.0 mi Variable 5.8 mph - 0.02 in Rain Light Rain
9:10 AM 66.2 °F 64.4 °F 94% 29.72 in 2.5 mi West 16.1 mph 21.9 mph 0.01 in Rain Light Rain
9:15 AM 64.4 °F 62.6 °F 94% 29.73 in 3.0 mi WNW 11.5 mph 29.9 mph 0.01 in Rain Light Rain
9:41 AM 62.6 °F 59.0 °F 88% 29.75 in 3.0 mi North 6.9 mph - 0.03 in Rain Light Rain
9:56 AM 61.0 °F 59.0 °F 93% 29.78 in 2.0 mi North 6.9 mph - 0.04 in Rain Rain
10:03 AM 60.8 °F 59.0 °F 94% 29.76 in 1.8 mi Variable 5.8 mph - 0.02 in Rain Rain
10:27 AM 60.8 °F 59.0 °F 94% 29.76 in 2.5 mi NE 6.9 mph - 0.05 in Rain Light Rain
10:38 AM 60.8 °F 59.0 °F 94% 29.76 in 1.8 mi Calm Calm - 0.07 in Rain Rain
10:42 AM 60.8 °F 59.0 °F 94% 29.76 in 1.2 mi Calm Calm - 0.08 in Rain Rain
10:56 AM 60.8 °F 59.0 °F 94% 29.76 in 1.5 mi ENE 5.8 mph - N/A Rain Rain
11:17 AM 60.8 °F 60.8 °F 100% 29.75 in 1.2 mi East 5.8 mph - 0.08 in Rain Rain
11:20 AM 60.8 °F 60.8 °F 100% 29.75 in 1.5 mi East 4.6 mph - 0.08 in Rain Rain
11:34 AM 60.8 °F 60.8 °F 100% 29.75 in 2.0 mi East 3.5 mph - 0.11 in Rain Rain
11:56 AM 59.9 °F 59.9 °F 100% 29.77 in 4.0 mi Calm Calm - 0.14 in Rain Light Rain
12:43 PM 60.8 °F 60.8 °F 100% 29.74 in 3.0 mi SE 3.5 mph - 0.05 in Rain Light Rain
12:56 PM 59.9 °F 59.9 °F 100% 29.76 in 3.0 mi SE 3.5 mph - 0.07 in Rain Light Rain
1:29 PM 60.8 °F 60.8 °F 100% 29.73 in 2.5 mi Variable 3.5 mph - 0.04 in Rain Light Rain
1:43 PM 60.8 °F 60.8 °F 100% 29.73 in 2.0 mi Variable 3.5 mph - 0.07 in Rain Light Rain
1:56 PM 60.8 °F 59.0 °F 94% 29.72 in 2.0 mi SSE 3.5 mph - N/A Rain Rain
2:08 PM 60.8 °F 60.8 °F 100% 29.71 in 1.8 mi ESE 4.6 mph - 0.03 in Rain Rain
2:18 PM 60.8 °F 59.0 °F 94% 29.71 in 2.5 mi SE 4.6 mph - 0.05 in Rain Light Rain
2:26 PM 60.8 °F 59.0 °F 94% 29.70 in 3.0 mi SE 3.5 mph - 0.06 in Rain Light Rain
2:56 PM 59.9 °F 59.0 °F 97% 29.74 in 1.5 mi Calm Calm - 0.12 in Rain Rain
3:05 PM 60.8 °F 59.0 °F 94% 29.72 in 2.0 mi Calm Calm - 0.01 in Rain Light Rain
3:13 PM 60.8 °F 59.0 °F 94% 29.72 in 2.5 mi SW 3.5 mph - 0.03 in Rain Rain
3:18 PM 60.8 °F 59.0 °F 94% 29.73 in 1.2 mi WSW 4.6 mph - 0.04 in Rain Light Rain
3:21 PM 60.8 °F 59.0 °F 94% 29.73 in 1.0 mi WSW 4.6 mph - 0.05 in Rain Light Rain
3:30 PM 60.8 °F 59.0 °F 94% 29.73 in 1.5 mi SW 3.5 mph - 0.05 in Rain Rain
3:36 PM 60.8 °F 59.0 °F 94% 29.74 in 3.0 mi WSW 6.9 mph - 0.05 in Rain Light Rain
3:48 PM 60.8 °F 59.0 °F 94% 29.74 in 2.5 mi WSW 8.1 mph - 0.06 in Rain Light Rain
3:56 PM 59.0 °F 59.0 °F 100% 29.78 in 1.2 mi SW 8.1 mph - 0.07 in Rain Light Rain
3:59 PM 59.0 °F 59.0 °F 100% 29.74 in 1.0 mi SW 5.8 mph - 0.00 in Rain Light Rain
4:05 PM 59.0 °F 59.0 °F 100% 29.74 in 1.5 mi SSW 6.9 mph - 0.00 in Rain Light Rain
4:10 PM 59.0 °F 59.0 °F 100% 29.75 in 3.0 mi WSW 6.9 mph - 0.00 in Rain Light Rain
4:18 PM 60.8 °F 59.0 °F 94% 29.75 in 10.0 mi Calm Calm - 0.00 in Rain Light Rain
4:38 PM 60.8 °F 59.0 °F 94% 29.75 in 10.0 mi SSW 4.6 mph - 0.00 in   Mostly Cloudy
4:56 PM 60.8 °F 59.0 °F 94% 29.75 in 10.0 mi Calm Calm - N/A   Mostly Cloudy
5:56 PM 61.9 °F 59.9 °F 93% 29.77 in 10.0 mi Variable 3.5 mph - N/A   Scattered Clouds
6:38 PM 60.8 °F 59.0 °F 94% 29.75 in 10.0 mi Calm Calm - N/A   Mostly Cloudy
6:46 PM 60.8 °F 59.0 °F 94% 29.75 in 8.0 mi Calm Calm - N/A   Scattered Clouds
6:56 PM 61.0 °F 59.9 °F 96% 29.78 in 8.0 mi Calm Calm - N/A   Mostly Cloudy
7:03 PM 60.8 °F 59.0 °F 94% 29.75 in 8.0 mi Calm Calm - N/A   Partly Cloudy
7:56 PM 59.0 °F 57.2 °F 94% 29.77 in 1.8 mi Calm Calm - N/A   Mostly Cloudy
8:02 PM 59.0 °F 59.0 °F 100% 29.78 in 3.0 mi NW 8.1 mph - N/A   Mostly Cloudy
8:09 PM 59.0 °F 59.0 °F 100% 29.78 in 4.0 mi NW 8.1 mph - N/A   Mostly Cloudy
8:16 PM 59.0 °F 57.2 °F 94% 29.78 in 10.0 mi WNW 9.2 mph - N/A   Overcast
8:56 PM 57.9 °F 55.9 °F 93% 29.83 in 10.0 mi NW 4.6 mph - N/A   Mostly Cloudy
9:56 PM 55.9 °F 54.9 °F 96% 29.86 in 10.0 mi Calm Calm - N/A   Scattered Clouds
10:56 PM 52.9 °F 52.9 °F 100% 29.87 in 10.0 mi Calm Calm - N/A   Clear
11:36 PM 51.8 °F 51.8 °F 100% 29.82 in 2.0 mi Calm Calm - N/A   Clear
11:46 PM 53.6 °F 51.8 °F 94% 29.82 in 3.0 mi Calm Calm - N/A   Scattered Clouds
11:56 PM 52.9 °F 52.9 °F 100% 29.87 in 4.0 mi Calm Calm - N/A   Scattered Clouds